Ankeny, IA

4:16 AM CST on November 20, 2017 (GMT -0600)
Ankeny Regional

Weather History for KIKV - February, 2014

Change the Weather History Date:

Thursday, February 20, 2014

  Actual Average (KDSM) Record (KDSM)
Temperature  
Mean Temperature 32 °F -  
Max Temperature 39 °F 39 °F 64 °F (1981)
Min Temperature 24 °F 21 °F -12 °F (1929)
Degree Days  
Heating Degree Days 34    
Moisture  
Dew Point 32 °F    
Average Humidity 93    
Maximum Humidity 100    
Minimum Humidity 81    
Precipitation  
Precipitation 0.19 in - - ()
Sea Level Pressure  
Sea Level Pressure 29.51 in    
Wind  
Wind Speed 15 mph (NW)    
Max Wind Speed 30 mph    
Max Gust Speed 46 mph    
Visibility 4 miles    
Events Fog , Rain , Snow    
Averages and records for this station are not official NWS values.
T = Trace of Precipitation, MM = Missing Value Source: NWS Daily Summary

Daily Weather History Graph

Daily Weather History Graph

Search for Another Location

Airport or City:

Trip Planner

Search our weather history database for the weather conditions in past years. The results will help you decide how hot, cold, wet, or windy it might be!

Date:

Astronomy

Feb. 20, 2014 Rise Set
Actual Time 7:02 AM CST 5:53 PM CST
Civil Twilight 6:34 AM CST 6:22 PM CST
Nautical Twilight 6:02 AM CST 6:54 PM CST
Astronomical Twilight 5:29 AM CST 7:26 PM CST
Moon 11:54 PM CST 9:40 AM CST
Length of Visible Light 11h 47m
Length of Day
10h 51m
Waning Gibbous, 70% of the Moon is Illuminated
Feb 20
Waning Gibbous
Feb 22
Last Quarter
Mar 1
New
Mar 8
First Quarter
Mar 16
Full

Hourly Weather History & Observations

Time (CST) Temp. Windchill Dew Point Humidity Pressure Visibility Wind Dir Wind Speed Gust Speed Precip Events Conditions
12:15 AM 39.2 °F 30.5 °F 35.6 °F 87% 29.66 in 6.0 mi SSE 16.1 mph - N/A Rain Light Rain
12:35 AM 39.2 °F 31.2 °F 37.4 °F 93% 29.65 in 6.0 mi SSE 13.8 mph 20.7 mph N/A Rain Light Rain
12:55 AM 39.2 °F 30.5 °F 37.4 °F 93% 29.64 in 9.0 mi SSE 16.1 mph - 0.02 in   Overcast
1:15 AM 37.4 °F 28.9 °F 37.4 °F 100% 29.63 in 9.0 mi SSE 13.8 mph 19.6 mph N/A   Overcast
1:35 AM 37.4 °F 28.9 °F 35.6 °F 93% 29.63 in 10.0 mi SSE 13.8 mph - N/A   Overcast
1:55 AM 37.4 °F 28.9 °F 35.6 °F 93% 29.61 in 10.0 mi SSE 13.8 mph 19.6 mph N/A   Overcast
2:15 AM 37.4 °F 29.3 °F 35.6 °F 93% 29.61 in 8.0 mi SE 12.7 mph 19.6 mph N/A   Overcast
2:55 AM 37.4 °F 29.3 °F 35.6 °F 93% 29.59 in 5.0 mi SE 12.7 mph 19.6 mph N/A   Overcast
3:15 AM 37.4 °F 31.4 °F 35.6 °F 93% 29.58 in 4.0 mi SE 8.1 mph - N/A   Overcast
3:35 AM 37.4 °F 32.1 °F 35.6 °F 93% 29.57 in 4.0 mi ESE 6.9 mph - N/A   Overcast
3:55 AM 37.4 °F 32.8 °F 35.6 °F 93% 29.57 in 3.0 mi ESE 5.8 mph - N/A   Overcast
4:15 AM 37.4 °F 31.4 °F 35.6 °F 93% 29.57 in 3.0 mi East 8.1 mph - N/A   Overcast
4:35 AM 35.6 °F 29.9 °F 35.6 °F 100% 29.56 in 2.5 mi Variable 6.9 mph - N/A Rain Light Rain
4:55 AM 35.6 °F 30.7 °F 35.6 °F 100% 29.55 in 3.0 mi East 5.8 mph - 0.01 in   Overcast
5:15 AM 35.6 °F 29.2 °F 35.6 °F 100% 29.54 in 3.0 mi East 8.1 mph - N/A   Overcast
6:35 AM 35.6 °F 29.9 °F 35.6 °F 100% 29.52 in 2.5 mi ENE 6.9 mph - N/A   Overcast
6:55 AM 35.6 °F 30.7 °F 35.6 °F 100% 29.52 in 2.0 mi NE 5.8 mph - N/A   Overcast
7:55 AM 35.6 °F 31.7 °F 35.6 °F 100% 29.54 in 0.5 mi NNE 4.6 mph - N/A Fog Fog
8:15 AM 35.6 °F 29.2 °F 35.6 °F 100% 29.50 in 0.2 mi NNE 8.1 mph - N/A Fog Fog
8:55 AM 35.6 °F 28.0 °F 35.6 °F 100% 29.45 in 0.2 mi NE 10.4 mph - N/A Rain Light Rain
9:35 AM 35.6 °F 27.1 °F 35.6 °F 100% 29.39 in 0.2 mi ENE 12.7 mph - N/A Fog Fog
9:55 AM 35.6 °F 28.6 °F 35.6 °F 100% 29.38 in 0.2 mi ENE 9.2 mph - 0.01 in Fog Fog
10:15 AM 35.6 °F 27.1 °F 35.6 °F 100% 29.34 in 0.2 mi ENE 12.7 mph - N/A Fog Fog
10:35 AM 35.6 °F 28.0 °F 35.6 °F 100% 29.33 in 0.2 mi NE 10.4 mph - N/A Fog Fog
10:55 AM 35.6 °F 27.5 °F 35.6 °F 100% 29.30 in 0.5 mi NE 11.5 mph - N/A Fog Fog
12:15 PM 33.8 °F 23.9 °F 33.8 °F 100% 29.32 in 2.5 mi NNW 15.0 mph 21.9 mph N/A   Overcast
1:55 PM 33.8 °F 21.9 °F 32.0 °F 93% 29.26 in 4.0 mi NW 21.9 mph 28.8 mph 0.14 in Rain Light Rain
2:15 PM 33.8 °F 23.2 °F 32.0 °F 93% 29.26 in 5.0 mi NW 17.3 mph 27.6 mph N/A Rain Light Rain
2:35 PM 33.8 °F 22.8 °F 32.0 °F 93% 29.26 in 2.0 mi NW 18.4 mph 31.1 mph N/A   Mostly Cloudy
5:15 PM 33.8 °F 21.0 °F 32.0 °F 93% 29.42 in 1.5 mi WNW 25.3 mph 34.5 mph N/A   Overcast
5:35 PM 33.8 °F 21.0 °F 32.0 °F 93% 29.44 in 2.0 mi West 25.3 mph 42.6 mph N/A Snow Light Snow
5:55 PM 33.8 °F 22.2 °F 32.0 °F 93% 29.46 in 8.0 mi WNW 20.7 mph 33.4 mph 0.01 in Snow Light Snow
6:15 PM 33.8 °F 20.8 °F 32.0 °F 93% 29.47 in 7.0 mi WNW 26.5 mph 36.8 mph N/A Snow Light Snow
6:35 PM 33.8 °F 20.5 °F 32.0 °F 93% 29.48 in 10.0 mi West 27.6 mph 35.7 mph N/A Rain Light Rain
6:55 PM 33.8 °F 21.9 °F 32.0 °F 93% 29.50 in 7.0 mi West 21.9 mph 38.0 mph N/A Rain Light Rain
7:15 PM 33.8 °F 20.1 °F 30.2 °F 87% 29.50 in 10.0 mi WNW 29.9 mph 40.3 mph N/A Rain Light Rain
7:35 PM 33.8 °F 21.9 °F 30.2 °F 87% 29.51 in 6.0 mi West 21.9 mph 35.7 mph N/A Rain Light Rain
7:55 PM 33.8 °F 21.0 °F 30.2 °F 87% 29.52 in 4.0 mi West 25.3 mph 42.6 mph N/A Rain Light Rain
8:15 PM 33.8 °F 20.8 °F 28.4 °F 81% 29.52 in 10.0 mi WNW 26.5 mph 46.0 mph N/A Rain Light Rain
8:30 PM 32.0 °F 18.1 °F 28.4 °F 87% 29.53 in 2.5 mi West 27.6 mph 46.0 mph N/A   Overcast
8:55 PM 30.2 °F 15.4 °F 28.4 °F 93% 29.54 in 1.8 mi West 28.8 mph 36.8 mph N/A   Overcast
9:15 PM 30.2 °F 15.4 °F 26.6 °F 86% 29.54 in 4.0 mi West 28.8 mph 42.6 mph N/A Rain Light Freezing Rain
9:35 PM 30.2 °F 15.4 °F 26.6 °F 86% 29.56 in 1.2 mi WNW 28.8 mph 41.4 mph N/A Snow Light Snow
9:55 PM 28.4 °F 13.3 °F 26.6 °F 93% 29.56 in 0.8 mi West 27.6 mph 42.6 mph N/A   Overcast
10:15 PM 28.4 °F 13.0 °F 24.8 °F 86% 29.56 in 0.8 mi WNW 28.8 mph 39.1 mph N/A   Overcast
10:35 PM 26.6 °F 13.1 °F 24.8 °F 93% 29.57 in 1.2 mi West 19.6 mph 28.8 mph N/A Snow Light Snow
10:55 PM 26.6 °F 13.1 °F 23.0 °F 86% 29.58 in 2.0 mi West 19.6 mph 35.7 mph N/A Snow Light Snow
11:15 PM 26.6 °F 12.7 °F 23.0 °F 86% 29.58 in 2.5 mi West 20.7 mph 33.4 mph N/A   Overcast
11:35 PM 24.8 °F 9.6 °F 21.2 °F 86% 29.59 in 2.5 mi WNW 23.0 mph 33.4 mph N/A Rain Light Freezing Rain
11:55 PM 24.8 °F 9.0 °F 21.2 °F 86% 29.59 in 4.0 mi WNW 25.3 mph 33.4 mph N/A Rain Light Freezing Rain